Theta_e
358 359 357 359 353 357 358 359 358 355 354 352 352 353 351 353 353 354 355 358 361 362 361 360 362 359 358 359 356 354 356 357 355 354 355 358 355 352 357 354 357 355 354
358 358 358 356 357 353 356 359 357 355 353 352 351 353 354 355 355 356 356 357 359 363 362 363 364 362 359 360 359 357 356 357 358 358 355 359 358 357 355 356 354 355 357
360 359 356 354 357 358 360 360 359 357 352 352 351 351 353 354 354 355 357 357 358 362 363 363 365 364 363 362 362 361 359 359 360 359 358 357 357 356 357 357 356 358 358
361 359 354 353 355 358 357 352 352 352 351 349 349 349 351 353 354 355 356 357 357 357 360 362 362 361 362 362 362 362 361 359 358 358 358 359 358 358 356 357 358 358 357
359 357 355 356 358 356 354 353 350 349 349 350 349 349 351 351 354 352 354 356 358 356 355 358 360 360 361 362 363 362 362 361 359 359 359 359 359 359 358 357 357 358 357
358 357 356 358 359 357 355 354 352 350 346 348 346 345 350 352 354 354 354 353 355 357 356 359 359 358 361 361 361 361 361 361 359 359 358 358 358 357 357 357 357 356 356
356 357 354 356 357 355 356 357 355 352 346 350 347 346 350 354 353 353 354 353 353 354 356 357 358 356 355 358 358 360 361 361 360 359 358 357 356 355 355 355 354 354 353
357 356 356 355 356 353 356 356 355 351 350 353 344 345 338 343 349 351 352 353 354 354 354 355 358 359 359 357 359 359 360 360 360 359 358 357 355 355 355 354 353 353 353
358 358 358 357 357 356 352 355 355 354 352 353 352 352 341 335 342 347 351 351 353 352 354 355 358 360 361 360 359 359 358 357 359 359 359 358 355 354 354 354 354 352 352
356 357 359 358 357 356 356 354 355 353 356 349 351 350 351 347 341 335 346 349 353 353 355 355 354 357 360 360 361 359 356 353 357 360 360 359 358 356 355 355 355 354 353
357 357 358 358 357 356 356 356 355 354 352 349 353 355 353 352 351 343 337 340 346 350 353 355 354 355 358 359 358 357 355 354 354 355 357 359 360 359 358 358 357 356 354
354 357 358 358 359 358 356 356 356 357 357 354 354 357 352 344 345 345 341 341 341 345 348 350 350 351 355 356 358 355 354 352 351 351 352 354 357 358 359 359 357 354 354
351 357 358 357 357 358 355 355 359 357 355 357 356 349 352 356 358 353 346 340 340 342 343 348 350 352 353 354 355 355 356 351 348 346 346 348 350 353 355 356 353 352 351
352 358 358 357 358 358 357 355 354 358 358 359 355 356 349 354 356 354 344 342 337 338 343 345 349 350 352 354 355 352 355 350 348 345 343 343 345 347 347 348 347 346 346
354 356 356 357 358 358 357 359 357 354 358 358 358 358 358 357 352 356 353 353 347 334 335 343 343 350 350 350 354 356 358 350 347 343 339 339 340 341 342 343 341 341 340
357 356 355 356 357 357 357 358 359 359 355 353 353 353 356 358 356 355 350 349 349 345 336 342 345 349 351 351 353 354 355 346 345 343 339 338 338 339 339 339 339 338 338
357 355 357 356 355 355 356 355 356 355 352 354 353 352 351 354 357 352 350 348 346 346 339 343 347 348 351 351 351 355 355 356 354 341 339 338 337 337 336 336 336 335 334
356 354 354 356 355 355 356 354 352 352 352 351 352 352 351 351 353 355 352 345 345 345 340 338 344 344 347 351 348 347 351 352 352 342 338 336 335 333 332 332 330 328 327
354 353 354 355 355 357 355 355 354 353 353 353 354 352 352 352 350 350 351 348 345 346 344 341 342 344 346 347 347 342 342 342 344 340 337 335 334 332 331 330 326 323 322
346 349 354 353 354 356 357 356 353 355 354 354 354 353 353 352 352 351 350 350 349 345 342 341 339 337 341 347 345 342 340 344 343 343 341 338 337 334 333 330 328 327 323
339 344 345 348 350 350 349 351 352 351 351 351 352 353 353 350 343 347 349 350 350 343 341 339 336 337 338 338 338 341 340 342 342 345 344 345 344 343 342 333 336 332 326
338 341 342 343 344 347 332 331 344 352 352 351 350 350 352 344 343 334 336 337 346 347 341 339 337 336 338 342 344 340 338 336 335 346 343 341 344 343 344 345 335 330 326
339 338 340 340 342 345 328 326 329 347 345 343 344 344 349 348 343 350 334 331 333 333 338 349 345 344 345 348 349 345 341 341 339 342 342 335 342 341 344 343 329 326 323
335 335 337 337 334 336 324 322 326 340 343 340 341 342 344 348 349 349 351 349 348 349 346 345 349 351 351 355 353 351 348 345 343 342 341 333 341 338 343 344 328 325 322
334 333 335 339 338 337 321 318 325 339 337 338 340 341 342 344 331 323 346 347 348 349 334 328 330 329 329 328 337 348 342 337 333 335 339 334 339 338 340 340 341 324 320
338 339 339 339 332 338 322 317 321 339 336 337 337 339 327 335 322 319 338 343 345 345 352 351 346 337 330 338 325 345 347 339 337 334 340 335 336 337 333 339 340 339 335
Wind_Speed
8 8 7 7 6 6 5 6 6 6 6 7 6 6 6 5 6 4 4 9 13 15 15 14 13 13 13 12 12 12 12 12 12 12 13 12 10 10 11 10 10 10 10
8 8 8 8 7 6 6 6 6 6 6 7 7 7 6 6 6 6 4 4 12 15 16 16 14 14 14 14 14 14 14 15 14 13 12 11 11 10 12 12 12 12 11
10 9 7 7 7 6 6 5 5 5 6 6 7 7 6 6 6 6 4 4 6 13 15 15 15 14 15 15 15 15 15 15 14 14 13 14 13 12 12 13 14 13 13
12 11 8 8 7 7 6 6 6 6 6 6 6 6 6 6 7 7 5 5 5 6 12 14 14 14 16 17 16 16 16 16 16 15 15 15 15 15 15 14 14 15 14
13 10 9 8 9 7 7 6 6 6 6 6 7 7 6 6 7 7 7 7 7 7 7 9 14 14 16 17 16 17 18 18 17 17 18 17 17 16 15 15 16 15 16
13 12 9 8 9 7 7 7 7 7 6 7 7 7 7 7 7 7 7 8 8 9 10 10 8 9 16 18 17 17 17 18 17 17 18 18 18 18 16 16 16 16 18
13 12 10 10 9 9 10 10 8 10 8 6 6 8 8 10 10 9 7 8 10 10 10 10 8 8 8 15 15 17 18 18 18 17 17 17 18 18 17 17 17 18 18
13 12 12 11 11 9 11 11 11 8 8 7 6 5 7 8 9 10 9 9 12 10 11 12 11 11 10 9 10 13 18 18 18 18 17 16 17 16 16 16 16 15 16
14 14 14 11 11 10 10 11 12 13 8 7 10 4 3 5 4 5 9 10 12 10 10 11 11 11 12 11 11 12 16 16 17 18 18 17 15 15 15 15 15 15 14
16 15 15 13 12 10 11 11 11 12 10 10 5 8 7 3 4 5 3 4 5 7 9 8 10 11 11 9 12 14 12 11 15 16 16 17 16 14 15 15 15 13 11
15 15 15 14 13 10 12 13 12 13 10 10 7 4 9 7 8 7 10 8 7 6 5 5 5 6 7 9 9 10 11 13 12 14 14 14 13 14 15 14 12 10 10
12 16 15 14 14 12 13 12 14 14 11 10 8 8 9 8 8 8 9 11 10 9 8 9 9 8 8 8 10 11 11 12 11 12 13 13 14 14 13 10 8 8 10
12 14 16 14 12 13 12 10 11 12 12 11 11 11 10 8 7 7 9 11 9 7 5 7 7 7 7 8 9 9 12 12 12 13 12 12 11 11 9 8 7 7 10
12 14 16 16 16 15 14 12 10 10 11 10 13 12 12 8 8 8 10 8 10 10 8 10 3 6 7 7 8 6 11 10 11 13 11 9 9 8 9 7 4 5 7
11 14 16 17 17 16 15 13 10 12 11 11 12 12 10 9 9 8 8 8 9 11 9 9 5 2 3 4 6 8 8 3 5 4 2 4 5 5 5 2 2 4 6
15 14 16 17 17 16 15 14 11 12 11 10 9 11 11 8 9 7 8 8 9 9 10 7 6 5 6 7 4 7 7 5 6 5 6 6 6 4 2 2 2 3 6
16 16 17 16 17 16 16 15 13 13 13 14 12 13 13 12 7 9 8 7 8 7 7 8 6 6 8 7 6 6 2 3 3 6 7 6 5 4 3 3 2 4 6
14 16 15 17 17 17 16 16 15 14 14 16 15 14 14 10 12 10 8 9 8 7 6 10 7 6 7 4 3 4 1 2 1 4 7 7 7 8 7 5 4 3 5
17 16 15 16 16 16 16 16 15 15 14 16 15 15 14 13 12 9 10 9 8 6 7 7 7 4 5 4 2 1 2 2 2 6 10 10 10 8 6 6 3 3 5
12 15 16 15 14 12 14 13 13 12 12 13 14 14 13 13 13 12 11 12 9 7 7 7 5 4 6 4 4 3 4 4 4 6 5 4 7 10 9 7 7 6 5
5 10 9 8 9 9 8 12 12 11 13 13 12 14 13 13 13 12 9 11 9 8 7 6 5 5 6 4 6 4 6 4 4 6 6 6 6 7 8 10 6 7 6
9 10 10 10 8 5 5 6 5 11 12 13 12 11 12 13 12 13 13 9 10 11 10 7 6 7 10 7 7 6 5 4 3 6 8 7 6 7 7 7 5 6 7
4 6 7 8 9 9 10 9 5 2 6 7 6 8 8 9 13 12 13 11 11 14 13 10 11 11 10 9 8 7 7 7 7 3 5 5 6 8 7 6 9 10 8
5 4 6 4 2 1 5 7 9 10 9 8 6 7 7 9 11 10 11 11 14 14 15 13 14 13 12 9 8 8 7 7 5 4 4 4 5 7 6 6 11 10 10
5 5 6 8 6 7 11 10 11 9 8 8 6 4 4 7 3 6 7 12 13 12 11 15 14 8 7 6 7 6 7 7 5 5 7 4 6 7 5 7 7 13 11
4 4 6 5 7 8 11 16 13 6 4 2 4 7 13 6 3 6 4 8 10 12 10 10 11 12 12 11 11 13 9 9 8 5 10 8 8 6 6 5 6 7 9
Wind_Direction
192 190 190 191 192 191 184 170 181 180 193 209 218 230 232 240 257 264 265 217 216 211 213 217 218 225 231 231 236 236 241 236 239 239 243 248 244 252 244 247 250 253 254
191 192 190 199 191 200 192 203 187 192 201 212 217 231 237 248 257 272 266 246 215 213 212 217 219 222 231 236 234 236 238 240 240 237 238 248 235 239 248 251 254 256 257
191 200 199 202 200 190 198 198 201 202 210 212 228 230 240 248 257 264 272 264 199 216 223 219 219 221 227 235 236 237 238 242 247 240 236 239 241 240 238 244 251 257 258
194 193 195 200 199 200 201 203 210 212 220 223 230 232 239 249 261 267 259 260 237 229 211 229 226 225 231 234 234 237 236 236 240 244 241 240 240 240 239 239 243 248 253
196 200 202 197 192 197 201 205 204 223 219 229 238 238 244 249 255 253 258 247 238 238 238 212 229 233 239 239 242 241 238 233 234 236 241 238 241 244 243 240 240 247 250
203 202 204 203 199 204 209 210 217 205 224 231 241 240 246 245 253 245 251 245 245 243 244 248 243 238 234 248 246 246 241 239 240 238 237 239 238 242 240 239 241 243 252
211 209 210 203 201 204 210 205 211 213 210 217 237 239 249 244 247 242 240 245 243 240 246 250 251 250 247 225 242 248 248 245 240 239 240 237 238 238 239 238 239 238 249
211 215 218 210 207 206 205 206 210 215 224 205 228 245 254 235 232 240 240 244 245 247 243 238 246 245 251 259 255 236 244 249 247 244 239 235 235 237 238 242 244 243 248
214 217 217 222 213 217 211 209 209 216 221 195 215 226 208 239 272 219 231 245 254 253 254 254 252 251 250 253 256 254 243 243 247 247 244 240 232 230 236 238 242 245 247
209 211 216 217 219 216 221 218 216 223 226 226 194 227 240 252 233 264 211 239 243 247 249 252 254 256 257 254 254 260 269 244 245 252 252 246 238 227 231 231 238 246 246
213 211 213 212 216 221 225 224 218 220 219 231 219 206 227 221 242 258 272 264 257 252 248 239 259 256 253 255 258 259 247 245 243 245 255 260 253 238 232 229 228 231 239
204 211 213 215 218 217 222 221 220 226 221 231 227 219 228 230 231 237 255 265 265 280 280 268 267 262 247 252 253 252 247 244 240 241 241 246 245 247 242 213 209 233 255
206 205 207 210 217 218 224 225 216 225 223 223 221 235 240 235 234 238 249 267 268 258 260 272 266 266 266 264 265 239 241 243 248 249 241 240 237 235 195 184 208 244 268
212 206 201 205 212 216 220 220 230 220 226 223 229 235 245 235 228 227 245 246 265 264 260 271 255 266 266 273 282 277 262 249 258 253 237 222 205 186 203 194 217 262 281
219 214 213 208 203 210 218 222 222 230 229 227 231 234 233 240 242 233 232 236 245 270 269 269 279 225 274 271 280 269 268 280 288 277 216 197 181 185 179 218 244 268 278
215 216 216 220 210 201 208 228 226 229 228 240 231 226 228 225 233 232 236 241 231 251 271 279 267 294 293 292 273 260 259 216 211 218 199 196 197 170 159 183 252 281 271
199 208 215 213 220 213 203 209 222 223 219 235 224 234 235 233 218 225 232 220 222 229 251 269 255 260 275 271 281 276 234 235 244 206 175 165 162 165 185 193 231 266 289
222 214 213 214 210 218 206 202 212 226 223 229 229 228 230 228 229 225 215 217 221 213 222 252 250 254 255 258 282 299 269 159 194 158 147 157 172 185 198 202 212 247 282
204 206 210 224 207 211 208 199 201 211 221 227 223 218 221 219 222 214 222 214 215 206 220 241 258 259 267 255 206 198 221 236 211 177 187 182 192 194 200 205 207 253 272
238 232 228 215 211 217 214 202 204 200 220 226 225 217 214 208 218 213 218 219 216 212 216 228 237 242 253 248 254 236 227 220 221 220 222 246 186 189 203 196 205 223 254
238 231 223 221 210 182 210 204 199 190 212 224 220 220 210 207 212 213 214 215 211 215 216 220 232 241 249 224 230 226 251 237 236 238 232 217 215 212 202 216 227 213 239
200 221 211 204 189 183 162 217 194 194 215 227 213 213 217 192 211 205 210 226 209 208 218 215 219 227 243 239 233 221 227 218 245 202 238 247 244 235 236 222 136 167 209
206 196 213 203 202 205 177 161 150 196 235 218 224 209 203 214 213 211 207 224 218 218 225 216 229 227 240 229 235 220 223 235 245 221 218 256 248 244 252 217 175 196 195
300 266 249 254 218 114 210 202 186 201 231 222 204 230 213 228 208 213 221 220 223 223 226 228 235 241 236 240 226 226 229 233 251 242 232 263 220 253 251 239 173 207 195
215 235 258 240 213 218 214 220 194 206 210 199 165 154 222 246 284 229 250 255 243 237 213 219 241 250 251 236 238 230 221 212 214 223 205 229 225 238 242 243 209 198 199
251 238 233 224 211 222 216 214 203 197 192 210 175 183 211 215 224 197 233 282 256 257 244 228 226 247 246 236 201 229 236 229 228 226 198 210 223 221 234 209 233 178 199